Regional Weather Roundup
Issued by NWS Newport/Morehead, NC

Home | Current Version | Previous Version | Text Only | Print | Product List | Glossary On
Versions: 1 2 3 4 5 6 7 8 9 10 11 12 13 14 15 16 17 18 19 20 21 22 23 24 25 26 27 28 29 30 31 32 33 34 35 36 37 38 39 40 41 42 43 44 45 46 47 48 49 50
000
ASUS42 KMHX 180622
RWRMHX
WEATHER ROUNDUP FOR EASTERN NORTH CAROLINA
NATIONAL WEATHER SERVICE NEWPORT/MOREHEAD CITY NC
100 AM EST THU DEC 18 2014

NOTE: "FAIR" INDICATES FEW OR NO CLOUDS BELOW 12,000 FEET
WITH NO SIGNIFICANT WEATHER AND/OR OBSTRUCTIONS TO VISIBILITY

NCZ015>017-031-032-045>047-102-103-180700-
NORTH COAST

CITY           SKY/WX    TMP DP  RH WIND       PRES   REMARKS
EDENTON          N/A     40  37  91 NW6       30.05R
ELIZABETH CITY PTCLDY    46  36  68 W7        30.04S
KITTY HAWK     PTCLDY    46  41  82 W3        30.01F
MANTEO         PTCLDY    46  41  84 W7        30.03F

$$

NCZ045>047-081-094-103-104-180700-
CENTRAL COAST

CITY           SKY/WX    TMP DP  RH WIND       PRES   REMARKS
FRISCO         CLOUDY    49  45  86 W6        30.04F
SWANQUARTER      N/A     46 N/A N/A W6        30.00S

$$

NCZ095-097-098-100-101-180700-
SOUTHERN COAST

CITY           SKY/WX    TMP DP  RH WIND       PRES   REMARKS
BEAUFORT       CLOUDY    47  44  90 CALM      30.06F
CEDAR ISLAND     N/A     46 N/A N/A SW5       30.09S
JACKSONVILLE   CLOUDY    44  40  85 W3        30.06F
PINEY ISLAND   NOT AVBL
WILMINGTON     PTCLDY    41  39  93 CALM      30.07F


$$

NCZ011>013-027>030-043-044-078>080-089-090>093-098-180700-
COASTAL PLAIN

CITY           SKY/WX    TMP DP  RH WIND       PRES   REMARKS
AHOSKIE        PTCLDY    35  34  94 CALM      30.07R
CLINTON        MOCLDY    40  40 100 CALM      30.07S
ELIZABETHTOWN  PTCLDY    40  38  93 CALM      30.07S
GOLDSBORO      CLOUDY    44  43  99 CALM      30.06S
GREENVILLE     CLOUDY    39  39 100 CALM      30.08S FOG
HAVELOCK       PTCLDY    44  40  85 MISG      30.07F
KENANSVILLE    CLOUDY    39  39  98 CALM      30.08R
KINSTON        CLOUDY    42  39  89 CALM      30.08R
NEW BERN       CLOUDY    47  40  76 CALM      30.07S
RICHLANDS      CLOUDY    39  36  87 CALM      30.07S
ROCKY MOUNT    MOCLDY    43  33  68 NW3       30.07S
WASHINGTON     CLOUDY    41  39  93 W3        30.07R
WHITEVILLE     CLEAR     38  36  92 CALM      30.07S

$$

AMZ130-135-150-152-154-156-158-170-250-252-270-ANZ085-086-088-633-658-670-180700-
MARINE OBSERVATIONS

STATION/POSITION TIME  TEMP    WIND        PRES    WAVE   SWELL
                       AIR SEA DIR/SP/G            HT/PER HT/PER
                 (UTC) (F)     (DEG/KT/KT) (MB)    (FT/S) (FT/S)
CHESAPEAKE LIGHT 0600   46     360/ 17/ 18 1017.2
64 E VA BEACH    0600   54 54  280/ 14/ 17 1015.1    2/ 8   2/ 8
DUCK             0600   47 49  240/  6/  7 1015.8
2 E DUCK         0600      49                N/A     1/11
10 NE DUCK       0600      50                N/A     2/ 8
OREGON INLET     0600   48 51  250/  6/ 10 1016.8
13E OREGON INLT  0600      53                N/A     2/ 8
HATTERAS CG      0600   51 55  270/  7/  9 1017.4
DIAMOND BUOY     0600   57                 1017.4    3/ 4
17 S OCRACOKE    NOT AVBL
CAPE LOOKOUT     0600   54     270/  9/  9 1017.5
BEAUFORT LAB     0600   50 53  290/  1/  3 1016.6
30 SE NEW RIVER  0600   57 60  270/ 10/ 12 1018.4    2/ 7   2/ 7
5 SE WRIGHTSVLE  NOT AVBL
225 S CAPE HAT   0525   68 72  260/  8/ 12 1018.5    5/ 7   5/ 7
41 SE CHARLESTON 0600   61 73  280/  8/ 12 1018.9    2/11   2/11

$$


USA.gov is the U.S. government's official web portal to all federal, state and local government web resources and services.